Time+07,TemperatureF,Dew PointF,Humidity,Sea Level PressureIn,VisibilityMPH,Wind Direction,Wind SpeedMPH,Gust SpeedMPH,PrecipitationIn,Events,Conditions,WindDirDegrees,DateUTC
12:00 AM,78.8,77.0,94,29.77,5.6,Calm,Calm,-,N/A,,Mostly Cloudy,0,2013-08-28 17:00:00
12:30 AM,78.8,77.0,94,29.77,5.6,Calm,Calm,-,N/A,,Mostly Cloudy,0,2013-08-28 17:30:00
1:00 AM,78.8,77.0,94,29.74,5.6,Calm,Calm,-,N/A,,Mostly Cloudy,0,2013-08-28 18:00:00
7:00 AM,80.6,77.0,89,29.77,6.2,Calm,Calm,-,N/A,,Scattered Clouds,0,2013-08-29 00:00:00
7:30 AM,80.6,77.0,89,29.77,6.2,Calm,Calm,-,N/A,,Scattered Clouds,0,2013-08-29 00:30:00
8:00 AM,82.4,77.0,84,29.77,6.2,South,3.5,-,N/A,,Scattered Clouds,170,2013-08-29 01:00:00
8:30 AM,84.2,75.2,74,29.80,6.2,South,5.8,-,N/A,,Mostly Cloudy,190,2013-08-29 01:30:00
9:00 AM,84.2,77.0,79,29.80,6.2,South,4.6,-,N/A,,Mostly Cloudy,180,2013-08-29 02:00:00
9:30 AM,84.2,77.0,79,29.80,6.2,SW,5.8,-,N/A,,Mostly Cloudy,230,2013-08-29 02:30:00
10:00 AM,84.2,77.0,79,29.80,6.2,WSW,4.6,-,N/A,,Mostly Cloudy,240,2013-08-29 03:00:00
10:30 AM,86.0,77.0,74,29.77,6.2,SW,4.6,-,N/A,,Mostly Cloudy,230,2013-08-29 03:30:00
11:00 AM,86.0,77.0,74,29.77,6.2,SSW,4.6,-,N/A,,Scattered Clouds,210,2013-08-29 04:00:00
11:30 AM,86.0,77.0,74,29.77,6.2,SW,5.8,-,N/A,,Scattered Clouds,230,2013-08-29 04:30:00
12:00 PM,87.8,77.0,70,29.74,6.2,WSW,6.9,-,N/A,,Scattered Clouds,250,2013-08-29 05:00:00
12:30 PM,87.8,77.0,70,29.74,6.2,WSW,6.9,-,N/A,,Scattered Clouds,240,2013-08-29 05:30:00
1:00 PM,89.6,77.0,66,29.71,6.2,WSW,13.8,-,N/A,,Scattered Clouds,250,2013-08-29 06:00:00
1:30 PM,87.8,75.2,66,29.71,6.2,West,11.5,-,N/A,,Scattered Clouds,280,2013-08-29 06:30:00
2:00 PM,87.8,75.2,66,29.68,6.2,West,13.8,-,N/A,,Scattered Clouds,280,2013-08-29 07:00:00
2:30 PM,86.0,77.0,74,29.68,6.2,WSW,10.4,-,N/A,,Mostly Cloudy,250,2013-08-29 07:30:00
3:00 PM,86.0,77.0,74,29.68,6.2,WSW,5.8,-,N/A,,Mostly Cloudy,250,2013-08-29 08:00:00
3:30 PM,86.0,77.0,74,29.68,6.2,SSW,5.8,-,N/A,,Mostly Cloudy,210,2013-08-29 08:30:00
4:00 PM,86.0,75.2,70,29.68,6.2,SSW,4.6,-,N/A,,Mostly Cloudy,200,2013-08-29 09:00:00
4:30 PM,82.4,73.4,74,29.68,5.0,WSW,17.3,-,N/A,Rain,Rain,250,2013-08-29 09:30:00
5:00 PM,78.8,73.4,83,29.68,6.2,SW,11.5,-,N/A,,Mostly Cloudy,230,2013-08-29 10:00:00
5:30 PM,78.8,73.4,83,29.68,6.2,SW,3.5,-,N/A,,Mostly Cloudy,230,2013-08-29 10:30:00
6:00 PM,78.8,73.4,83,29.68,6.2,SW,3.5,-,N/A,,Mostly Cloudy,230,2013-08-29 11:00:00
6:30 PM,78.8,73.4,83,29.71,6.2,East,3.5,-,N/A,Rain,Light Rain,100,2013-08-29 11:30:00
7:00 PM,80.6,75.2,84,29.74,5.6,SSE,3.5,-,N/A,Rain,Light Rain,160,2013-08-29 12:00:00
7:30 PM,78.8,75.2,89,29.74,5.6,ESE,2.3,-,N/A,Rain,Light Rain,120,2013-08-29 12:30:00
8:00 PM,78.8,75.2,89,29.74,5.6,Calm,Calm,-,N/A,,Mostly Cloudy,0,2013-08-29 13:00:00
8:30 PM,78.8,77.0,94,29.77,5.6,ESE,3.5,-,N/A,,Mostly Cloudy,120,2013-08-29 13:30:00
9:00 PM,78.8,75.2,89,29.77,5.6,ESE,3.5,-,N/A,,Mostly Cloudy,120,2013-08-29 14:00:00
9:30 PM,78.8,77.0,94,29.80,5.6,ESE,3.5,-,N/A,,Mostly Cloudy,120,2013-08-29 14:30:00
10:00 PM,78.8,77.0,94,29.80,5.6,ESE,3.5,-,N/A,,Mostly Cloudy,120,2013-08-29 15:00:00
10:30 PM,78.8,77.0,94,29.80,5.6,Calm,Calm,-,N/A,,Mostly Cloudy,0,2013-08-29 15:30:00
11:00 PM,78.8,77.0,94,29.80,5.6,ESE,2.3,-,N/A,,Mostly Cloudy,110,2013-08-29 16:00:00
11:30 PM,78.8,77.0,94,29.80,5.6,ESE,2.3,-,N/A,,Mostly Cloudy,110,2013-08-29 16:30:00